Terug naar catalogus

SL-23 R/B

ActiefHEO
NORAD 34112·ROCKET BODY·🇷🇺 Russia

Gelanceerd Feb 26, 2009 vanaf Baikonur Cosmodrome

Loading…

Volgende Passages (komende 24 uur)

TLE

VersSource: Space-Track

Epoch: Sep 14, 2026, 17:11 UTC

1 34112U 09009B   26257.71625400  .00000004  00000-0  00000-0 0  9990
2 34112  34.5500 245.4583 6929417 203.4505  85.0605  2.20447673141339

Volg SL-23 R/B in realtime met AllMySat

Download on the App Store